Skip Page Navigation
NASA JPL Caltech
NASA Logo - Jet Propulsion Laboratory + View the NASA Portal
+ Near-Earth Object (NEO) Program
Search JPL
JPL Home Earth Solar System Stars & Galaxies Technology
JPL Solar System Dynamics
BODIES ORBITS EPHEMERIDES TOOLS PHYSICAL DATA DISCOVERY FAQ SITE MAP
JPL Small-Body Database Browser
Search: [ help ]  
349010 (2006 UO275)
Classification: Main-belt Asteroid          SPK-ID: 2349010
Ephemeris | Orbit Diagram | Orbital Elements | Physical Parameters | Discovery Circumstances | Close-Approach Data ]

[ hide orbit diagram ]
Orbit Diagram
Note: Make sure you have Java enabled on your browser to see the applet. This applet is provided as a 3D orbit visualization tool. The applet was implemented using 2-body methods, and hence should not be used for determining accurate long-term trajectories (over several years or decades) or planetary encounter circumstances. For accurate long-term ephemerides, please instead use our Horizons system.
Orbit Viewer

Additional Notes: the orbits shown in the applet are color coded. The planets are white lines, and the asteroid/comet is a blue line. The bright white line indicates the portion of the orbit that is above the ecliptic plane, and the darker portion is below the ecliptic plane. Likewise for the asteroid/comet orbit, the light blue indicates the portion above the ecliptic plane, and the dark blue the portion below the ecliptic plane.

Orbit Viewer applet originally written and kindly provided by Osamu Ajiki (AstroArts), and further modified by Ron Baalke (JPL).


Orbital Elements at Epoch 2456400.5 (2013-Apr-18.0) TDB
Reference: JPL 1 (heliocentric ecliptic J2000)
 Element Value Uncertainty (1-sigma)   Units 
e .07454869001661427 2.5096e-07  
a 2.795496171100514 1.2344e-07 AU
q 2.58709559359851 6.4318e-07 AU
i 5.546339143172172 1.7637e-05 deg
node 215.91085338 0.00012081 deg
peri 218.7675750359821 0.00024623 deg
M 99.0066519714468 0.00018776 deg
tp 2455930.985884656399
(2012-Jan-04.48588466)
0.00090143 JED
period 1707.209345614904
4.67
0.00011307
3.096e-07
d
yr
n .210870448269679 1.3967e-08 deg/d
Q 3.003896748602519 1.3264e-07 AU
  Orbit Determination Parameters
   # obs. used (total)      75  
   data-arc span      2368 days (6.48 yr)  
   first obs. used      2006-10-11  
   last obs. used      2013-04-05  
   planetary ephem.      DE405  
   SB-pert. ephem.      SB405-CPV-2  
   condition code      0  
   fit RMS      .60496  
   data source      ORB  
   producer      Otto Matic  
   solution date      2013-Apr-29 23:36:45  

Additional Information
 Earth MOID = 1.60375 AU 
 T_jup = 3.316 
[ show covariance matrix ]

Ephemeris | Orbit Diagram | Orbital Elements | Physical Parameters | Discovery Circumstances | Close-Approach Data ]

Physical Parameter Table
Parameter Symbol Value Units Sigma Reference Notes
absolute magnitude H 17.007 mag .40764 1 autocmod 2.5c

349010 (2006 UO275)          Discovered 2006-Oct-28 by Molnar, L. A. at Calvin-Rehoboth (G98)
Reference: 20121228/Numbers.arcLast Updated: 2013-01-02

[ show close-approach data ]
Ephemeris | Orbit Diagram | Orbital Elements | Physical Parameters | Discovery Circumstances | Close-Approach Data ]
ABOUT SSD CREDITS/AWARDS PRIVACY/COPYRIGHT GLOSSARY LINKS
FirstGov 2013-Jun-19 00:01 UT
(server date/time)  
NASA Home Page
Site Manager:   Donald K. Yeomans
Webmaster  Alan B. Chamberlin